Year,Month,Day,Hour,Minute,Value (Times are PST for temperature in C)
2019,08,10,00,00,17.40
2019,08,10,00,01,17.40
2019,08,10,00,02,17.40
2019,08,10,00,03,17.40
2019,08,10,00,04,17.40
2019,08,10,00,05,17.30
2019,08,10,00,06,17.30
2019,08,10,00,07,17.30
2019,08,10,00,08,17.30
2019,08,10,00,09,17.30
2019,08,10,00,10,17.30
2019,08,10,00,11,17.20
2019,08,10,00,12,17.20
2019,08,10,00,13,17.20
2019,08,10,00,14,17.20
2019,08,10,00,15,17.20
2019,08,10,00,16,17.20
2019,08,10,00,17,17.20
2019,08,10,00,18,17.20
2019,08,10,00,19,17.20
2019,08,10,00,20,17.20
2019,08,10,00,21,17.20
2019,08,10,00,22,17.20
2019,08,10,00,23,17.20
2019,08,10,00,24,17.20
2019,08,10,00,25,17.20
2019,08,10,00,26,17.10
2019,08,10,00,27,17.10
2019,08,10,00,28,17.10
2019,08,10,00,29,17.10
2019,08,10,00,30,17.10
2019,08,10,00,31,17.10
2019,08,10,00,32,17.10
2019,08,10,00,33,17.10
2019,08,10,00,34,17.10
2019,08,10,00,35,17.10
2019,08,10,00,36,17.10
2019,08,10,00,37,17.10
2019,08,10,00,38,17.10
2019,08,10,00,39,17.20
2019,08,10,00,40,17.20
2019,08,10,00,41,17.20
2019,08,10,00,42,17.20
2019,08,10,00,43,17.20
2019,08,10,00,44,17.20
2019,08,10,00,45,17.20
2019,08,10,00,46,17.20
2019,08,10,00,47,17.20
2019,08,10,00,48,17.20
2019,08,10,00,49,17.20
2019,08,10,00,50,17.20
2019,08,10,00,51,17.30
2019,08,10,00,52,17.30
2019,08,10,00,53,17.30
2019,08,10,00,54,17.30
2019,08,10,00,55,17.30
2019,08,10,00,56,17.30
2019,08,10,00,57,17.30
2019,08,10,00,58,17.30
2019,08,10,00,59,17.30
2019,08,10,01,00,17.30
2019,08,10,01,01,17.30
2019,08,10,01,02,17.30
2019,08,10,01,03,17.30
2019,08,10,01,04,17.30
2019,08,10,01,05,17.30
2019,08,10,01,06,17.30
2019,08,10,01,07,17.30
2019,08,10,01,08,17.30
2019,08,10,01,09,17.20
2019,08,10,01,10,17.20
2019,08,10,01,11,17.20
2019,08,10,01,12,17.20
2019,08,10,01,13,17.10
2019,08,10,01,14,17.10
2019,08,10,01,15,17.10
2019,08,10,01,16,17.10
2019,08,10,01,17,17.10
2019,08,10,01,18,17.10
2019,08,10,01,19,17.10
2019,08,10,01,20,17.10
2019,08,10,01,21,17.10
2019,08,10,01,22,17.10
2019,08,10,01,23,17.10
2019,08,10,01,24,17.10
2019,08,10,01,25,17.10
2019,08,10,01,26,17.10
2019,08,10,01,27,17.00
2019,08,10,01,28,17.00
2019,08,10,01,29,17.00
2019,08,10,01,30,17.00
2019,08,10,01,31,17.00
2019,08,10,01,32,17.00
2019,08,10,01,33,17.00
2019,08,10,01,34,17.00
2019,08,10,01,35,17.00
2019,08,10,01,36,17.00
2019,08,10,01,37,17.00
2019,08,10,01,38,17.00
2019,08,10,01,39,17.00
2019,08,10,01,40,17.00
2019,08,10,01,41,17.00
2019,08,10,01,42,16.90
2019,08,10,01,43,16.90
2019,08,10,01,44,16.90
2019,08,10,01,45,16.90
2019,08,10,01,46,16.90
2019,08,10,01,47,16.90
2019,08,10,01,48,16.90
2019,08,10,01,49,16.90
2019,08,10,01,50,16.90
2019,08,10,01,51,16.90
2019,08,10,01,52,17.00
2019,08,10,01,53,16.90
2019,08,10,01,54,17.00
2019,08,10,01,55,16.90
2019,08,10,01,56,16.90
2019,08,10,01,57,17.00
2019,08,10,01,58,16.90
2019,08,10,01,59,16.90
2019,08,10,02,00,17.00
2019,08,10,02,01,17.00
2019,08,10,02,02,17.00
2019,08,10,02,03,17.00
2019,08,10,02,04,17.00
2019,08,10,02,05,17.00
2019,08,10,02,06,17.00
2019,08,10,02,07,16.90
2019,08,10,02,08,16.90
2019,08,10,02,09,16.90
2019,08,10,02,10,16.90
2019,08,10,02,11,16.90
2019,08,10,02,12,16.90
2019,08,10,02,13,16.90
2019,08,10,02,14,16.90
2019,08,10,02,15,16.90
2019,08,10,02,16,16.90
2019,08,10,02,17,16.90
2019,08,10,02,18,16.80
2019,08,10,02,19,16.80
2019,08,10,02,20,16.80
2019,08,10,02,21,16.80
2019,08,10,02,22,16.80
2019,08,10,02,23,16.80
2019,08,10,02,24,16.80
2019,08,10,02,25,16.80
2019,08,10,02,26,16.80
2019,08,10,02,27,16.80
2019,08,10,02,28,16.80
2019,08,10,02,29,16.80
2019,08,10,02,30,16.80
2019,08,10,02,31,16.80
2019,08,10,02,32,16.70
2019,08,10,02,33,16.70
2019,08,10,02,34,16.70
2019,08,10,02,35,16.70
2019,08,10,02,36,16.70
2019,08,10,02,37,16.70
2019,08,10,02,38,16.70
2019,08,10,02,39,16.70
2019,08,10,02,40,16.70
2019,08,10,02,41,16.70
2019,08,10,02,42,16.70
2019,08,10,02,43,16.70
2019,08,10,02,44,16.70
2019,08,10,02,45,16.70
2019,08,10,02,46,16.70
2019,08,10,02,47,16.70
2019,08,10,02,48,16.70
2019,08,10,02,49,16.70
2019,08,10,02,50,16.70
2019,08,10,02,51,16.70
2019,08,10,02,52,16.70
2019,08,10,02,53,16.70
2019,08,10,02,54,16.70
2019,08,10,02,55,16.60
2019,08,10,02,56,16.60
2019,08,10,02,57,16.60
2019,08,10,02,58,16.60
2019,08,10,02,59,16.60
2019,08,10,03,00,16.60
2019,08,10,03,01,16.60
2019,08,10,03,02,16.60
2019,08,10,03,03,16.60
2019,08,10,03,04,16.50
2019,08,10,03,05,16.50
2019,08,10,03,06,16.40
2019,08,10,03,07,16.40
2019,08,10,03,08,16.30
2019,08,10,03,09,16.30
2019,08,10,03,10,16.30
2019,08,10,03,11,16.30
2019,08,10,03,12,16.20
2019,08,10,03,13,16.20
2019,08,10,03,14,16.20
2019,08,10,03,15,16.20
2019,08,10,03,16,16.20
2019,08,10,03,17,16.10
2019,08,10,03,18,16.10
2019,08,10,03,19,16.10
2019,08,10,03,20,16.10
2019,08,10,03,21,16.10
2019,08,10,03,22,16.10
2019,08,10,03,23,16.10
2019,08,10,03,24,16.10
2019,08,10,03,25,16.10
2019,08,10,03,26,16.10
2019,08,10,03,27,16.00
2019,08,10,03,28,16.00
2019,08,10,03,29,16.00
2019,08,10,03,30,16.00
2019,08,10,03,31,16.00
2019,08,10,03,32,16.00
2019,08,10,03,33,16.00
2019,08,10,03,34,16.00
2019,08,10,03,35,16.00
2019,08,10,03,36,16.00
2019,08,10,03,37,16.00
2019,08,10,03,38,15.90
2019,08,10,03,39,15.90
2019,08,10,03,40,15.90
2019,08,10,03,41,15.90
2019,08,10,03,42,15.90
2019,08,10,03,43,15.90
2019,08,10,03,44,15.90
2019,08,10,03,45,15.90
2019,08,10,03,46,15.90
2019,08,10,03,47,15.80
2019,08,10,03,48,15.80
2019,08,10,03,49,15.80
2019,08,10,03,50,15.80
2019,08,10,03,51,15.80
2019,08,10,03,52,15.80
2019,08,10,03,53,15.70
2019,08,10,03,54,15.70
2019,08,10,03,55,15.70
2019,08,10,03,56,15.70
2019,08,10,03,57,15.70
2019,08,10,03,58,15.70
2019,08,10,03,59,15.60
2019,08,10,04,00,15.60
2019,08,10,04,01,15.60
2019,08,10,04,02,15.60
2019,08,10,05,04,15.20
2019,08,10,05,05,15.20
2019,08,10,05,06,15.20
2019,08,10,05,07,15.20
2019,08,10,05,08,15.20
2019,08,10,05,09,15.20
2019,08,10,05,10,15.20
2019,08,10,05,11,15.20
2019,08,10,05,12,15.30
2019,08,10,05,13,15.30
2019,08,10,05,14,15.30
2019,08,10,05,15,15.30
2019,08,10,05,16,15.30
2019,08,10,05,17,15.30
2019,08,10,05,18,15.30
2019,08,10,05,19,15.30
2019,08,10,05,20,15.30
2019,08,10,05,21,15.30
2019,08,10,05,22,15.30
2019,08,10,05,23,15.30
2019,08,10,05,24,15.30
2019,08,10,05,25,15.30
2019,08,10,05,26,15.30
2019,08,10,05,27,15.30
2019,08,10,05,28,15.30
2019,08,10,05,29,15.30
2019,08,10,05,30,15.30
2019,08,10,05,31,15.30
2019,08,10,05,32,15.30
2019,08,10,05,33,15.30
2019,08,10,05,34,15.30
2019,08,10,05,35,15.40
2019,08,10,05,36,15.40
2019,08,10,05,37,15.40
2019,08,10,05,38,15.40
2019,08,10,05,39,15.40
2019,08,10,05,40,15.40
2019,08,10,05,41,15.40
2019,08,10,05,42,15.40
2019,08,10,05,43,15.40
2019,08,10,05,44,15.40
2019,08,10,05,45,15.40
2019,08,10,05,46,15.30
2019,08,10,05,47,15.30
2019,08,10,05,48,15.20
2019,08,10,05,49,15.10
2019,08,10,05,50,15.00
2019,08,10,05,51,14.90
2019,08,10,05,52,14.80
2019,08,10,05,53,14.80
2019,08,10,05,54,14.70
2019,08,10,05,55,14.60
2019,08,10,05,56,14.60
2019,08,10,05,57,14.50
2019,08,10,05,58,14.50
2019,08,10,05,59,14.40
2019,08,10,06,00,14.40
2019,08,10,06,01,14.40
2019,08,10,06,02,14.40
2019,08,10,06,03,14.30
2019,08,10,06,04,14.30
2019,08,10,06,05,14.30
2019,08,10,06,06,14.30
2019,08,10,06,07,14.30
2019,08,10,06,08,14.30
2019,08,10,06,09,14.30
2019,08,10,06,10,14.30
2019,08,10,06,11,14.30
2019,08,10,06,12,14.30
2019,08,10,06,13,14.30
2019,08,10,06,14,14.30
2019,08,10,06,15,14.30
2019,08,10,06,16,14.30
2019,08,10,06,17,14.30
2019,08,10,06,18,14.30
2019,08,10,06,19,14.30
2019,08,10,06,20,14.30
2019,08,10,06,21,14.30
2019,08,10,06,22,14.30
2019,08,10,06,23,14.30
2019,08,10,06,24,14.30
2019,08,10,06,25,14.30
2019,08,10,06,26,14.30
2019,08,10,06,27,14.40
2019,08,10,06,28,14.40
2019,08,10,06,29,14.40
2019,08,10,06,30,14.40
2019,08,10,06,31,14.40
2019,08,10,06,32,14.40
2019,08,10,06,33,14.40
2019,08,10,06,34,14.40
2019,08,10,06,35,14.40
2019,08,10,06,36,14.50
2019,08,10,06,37,14.40
2019,08,10,06,38,14.50
2019,08,10,06,39,14.50
2019,08,10,06,40,14.50
2019,08,10,06,41,14.50
2019,08,10,06,42,14.50
2019,08,10,06,43,14.50
2019,08,10,06,44,14.60
2019,08,10,06,45,14.60
2019,08,10,06,46,14.60
2019,08,10,06,47,14.60
2019,08,10,06,48,14.60
2019,08,10,06,49,14.60
2019,08,10,06,50,14.60
2019,08,10,06,51,14.70
2019,08,10,06,52,14.70
2019,08,10,06,53,14.70
2019,08,10,06,54,14.70
2019,08,10,06,55,14.70
2019,08,10,06,56,14.70
2019,08,10,06,57,14.80
2019,08,10,06,58,14.80
2019,08,10,06,59,14.80
2019,08,10,07,00,14.80
2019,08,10,07,01,14.80
2019,08,10,07,02,14.80
2019,08,10,07,03,14.90
2019,08,10,07,04,14.90
2019,08,10,07,05,14.90
2019,08,10,07,06,14.90
2019,08,10,07,07,14.90
2019,08,10,07,08,14.90
2019,08,10,07,09,14.90
2019,08,10,07,10,14.90
2019,08,10,07,11,14.90
2019,08,10,07,12,14.90
2019,08,10,07,13,14.90
2019,08,10,07,14,14.90
2019,08,10,07,15,14.90
2019,08,10,07,16,14.90
2019,08,10,07,17,14.90
2019,08,10,07,18,14.90
2019,08,10,07,19,14.90
2019,08,10,07,20,14.90
2019,08,10,07,21,14.90
2019,08,10,07,22,14.90
2019,08,10,07,23,14.90
2019,08,10,07,24,14.90
2019,08,10,07,25,14.90
2019,08,10,07,26,14.90
2019,08,10,07,27,15.00
2019,08,10,07,28,15.00
2019,08,10,07,29,15.00
2019,08,10,07,30,15.00
2019,08,10,07,31,15.00
2019,08,10,07,32,15.00
2019,08,10,07,33,15.00
2019,08,10,07,34,15.00
2019,08,10,07,35,15.00
2019,08,10,07,36,15.00
2019,08,10,07,37,15.10
2019,08,10,07,38,15.00
2019,08,10,07,39,15.00
2019,08,10,07,40,15.00
2019,08,10,07,41,15.00
2019,08,10,07,42,15.00
2019,08,10,07,43,15.00
2019,08,10,07,44,14.90
2019,08,10,07,45,14.90
2019,08,10,07,46,14.90
2019,08,10,07,47,14.90
2019,08,10,07,48,14.80
2019,08,10,07,49,14.80
2019,08,10,07,50,14.80
2019,08,10,07,51,14.80
2019,08,10,07,52,14.80
2019,08,10,07,53,14.80
2019,08,10,07,54,14.80
2019,08,10,07,55,14.80
2019,08,10,07,56,14.80
2019,08,10,07,57,14.80
2019,08,10,07,58,14.70
2019,08,10,07,59,14.70
2019,08,10,08,00,14.70
2019,08,10,08,01,14.70
2019,08,10,08,02,14.70
2019,08,10,08,03,14.70
2019,08,10,08,04,14.70
2019,08,10,08,05,14.70
2019,08,10,08,06,14.70
2019,08,10,08,07,14.70
2019,08,10,08,08,14.70
2019,08,10,08,09,14.80
2019,08,10,08,10,14.80
2019,08,10,08,11,14.80
2019,08,10,08,12,14.80
2019,08,10,08,13,14.80
2019,08,10,08,14,14.80
2019,08,10,08,15,14.80
2019,08,10,08,16,14.70
2019,08,10,08,17,14.70
2019,08,10,08,18,14.70
2019,08,10,08,19,14.80
2019,08,10,08,20,14.80
2019,08,10,08,21,14.80
2019,08,10,08,22,14.80
2019,08,10,08,23,14.80
2019,08,10,08,24,14.80
2019,08,10,08,25,14.80
2019,08,10,08,26,14.80
2019,08,10,08,27,14.80
2019,08,10,08,28,14.80
2019,08,10,08,29,14.80
2019,08,10,08,30,14.80
2019,08,10,08,31,14.80
2019,08,10,08,32,14.80
2019,08,10,08,33,14.80
2019,08,10,08,34,14.80
2019,08,10,08,35,14.90
2019,08,10,08,36,14.90
2019,08,10,08,37,14.90
2019,08,10,08,38,14.90
2019,08,10,08,39,14.90
2019,08,10,08,40,14.90
2019,08,10,08,41,14.90
2019,08,10,08,42,15.00
2019,08,10,08,43,15.00
2019,08,10,08,44,15.00
2019,08,10,08,45,15.10
2019,08,10,08,46,15.10
2019,08,10,08,47,15.10
2019,08,10,08,48,15.10
2019,08,10,08,49,15.20
2019,08,10,08,50,15.20
2019,08,10,08,51,15.20
2019,08,10,08,52,15.30
2019,08,10,08,53,15.30
2019,08,10,08,54,15.30
2019,08,10,08,55,15.30
2019,08,10,08,56,15.30
2019,08,10,08,57,15.30
2019,08,10,08,58,15.40
2019,08,10,08,59,15.40
2019,08,10,09,00,15.40
2019,08,10,09,01,15.40
2019,08,10,09,02,15.50
2019,08,10,09,03,15.50
2019,08,10,09,04,15.50
2019,08,10,09,05,15.60
2019,08,10,09,06,15.60
2019,08,10,09,07,15.60
2019,08,10,09,08,15.60
2019,08,10,09,09,15.70
2019,08,10,09,10,15.70
2019,08,10,09,11,15.70
2019,08,10,09,12,15.70
2019,08,10,09,13,15.80
2019,08,10,09,14,15.80
2019,08,10,09,15,15.80
2019,08,10,09,16,15.80
2019,08,10,09,17,15.90
2019,08,10,09,18,15.90
2019,08,10,09,19,15.90
2019,08,10,09,20,15.90
2019,08,10,09,21,16.00
2019,08,10,09,22,16.00
2019,08,10,09,23,16.00
2019,08,10,09,24,16.00
2019,08,10,09,25,16.10
2019,08,10,09,26,16.10
2019,08,10,09,27,16.10
2019,08,10,09,28,16.20
2019,08,10,09,29,16.20
2019,08,10,09,30,16.20
2019,08,10,09,31,16.20
2019,08,10,09,32,16.30
2019,08,10,09,33,16.30
2019,08,10,09,34,16.40
2019,08,10,09,35,16.40
2019,08,10,09,36,16.50
2019,08,10,09,37,16.50
2019,08,10,09,38,16.60
2019,08,10,09,39,16.60
2019,08,10,09,40,16.70
2019,08,10,09,41,16.70
2019,08,10,09,42,16.70
2019,08,10,09,43,16.80
2019,08,10,09,44,16.80
2019,08,10,09,45,16.90
2019,08,10,09,46,16.90
2019,08,10,09,47,16.90
2019,08,10,09,48,17.00
2019,08,10,09,49,17.00
2019,08,10,09,50,17.00
2019,08,10,09,51,17.00
2019,08,10,09,52,17.00
2019,08,10,09,53,17.00
2019,08,10,09,54,17.00
2019,08,10,09,55,17.00
2019,08,10,09,56,17.10
2019,08,10,09,57,17.10
2019,08,10,09,58,17.10
2019,08,10,09,59,17.00
2019,08,10,10,00,17.00
2019,08,10,10,01,17.00
2019,08,10,10,02,16.90
2019,08,10,10,03,16.90
2019,08,10,10,04,16.80
2019,08,10,10,05,16.70
2019,08,10,10,06,16.60
2019,08,10,10,07,16.50
2019,08,10,10,08,16.40
2019,08,10,10,09,16.30
2019,08,10,10,10,16.20
2019,08,10,10,11,16.10
2019,08,10,10,12,16.00
2019,08,10,10,13,16.00
2019,08,10,10,14,15.90
2019,08,10,10,15,15.90
2019,08,10,10,16,15.90
2019,08,10,10,17,15.90
2019,08,10,10,18,15.90
2019,08,10,10,19,15.90
2019,08,10,10,20,15.90
2019,08,10,10,21,15.90
2019,08,10,10,22,15.90
2019,08,10,10,23,15.90
2019,08,10,10,24,15.90
2019,08,10,10,25,16.00
2019,08,10,10,26,16.00
2019,08,10,10,27,16.10
2019,08,10,10,28,16.10
2019,08,10,10,29,16.10
2019,08,10,10,30,16.10
2019,08,10,10,31,16.10
2019,08,10,10,32,16.10
2019,08,10,10,33,16.10
2019,08,10,10,34,16.10
2019,08,10,10,35,16.10
2019,08,10,10,36,16.10
2019,08,10,10,37,16.10
2019,08,10,10,38,16.10
2019,08,10,10,39,16.10
2019,08,10,10,40,16.10
2019,08,10,10,41,16.10
2019,08,10,10,42,16.10
2019,08,10,10,43,16.10
2019,08,10,10,44,16.10
2019,08,10,10,45,16.10
2019,08,10,10,46,16.10
2019,08,10,10,47,16.00
2019,08,10,10,48,16.00
2019,08,10,10,49,15.90
2019,08,10,10,50,15.80
2019,08,10,10,51,15.80
2019,08,10,10,52,15.70
2019,08,10,10,53,15.70
2019,08,10,10,54,15.70
2019,08,10,10,55,15.60
2019,08,10,10,56,15.70
2019,08,10,10,57,15.70
2019,08,10,10,58,15.70
2019,08,10,10,59,15.70
2019,08,10,11,00,15.70
2019,08,10,11,01,15.70
2019,08,10,11,02,15.70
2019,08,10,11,03,15.80
2019,08,10,11,04,15.70
2019,08,10,11,05,15.70
2019,08,10,11,06,15.70
2019,08,10,11,07,15.70
2019,08,10,11,08,15.70
2019,08,10,11,09,15.70
2019,08,10,11,10,15.80
2019,08,10,11,11,15.80
2019,08,10,11,12,15.80
2019,08,10,11,13,15.80
2019,08,10,11,14,15.80
2019,08,10,11,15,15.80
2019,08,10,11,16,15.80
2019,08,10,11,17,15.80
2019,08,10,11,18,15.80
2019,08,10,11,19,15.90
2019,08,10,11,20,15.90
2019,08,10,11,21,15.90
2019,08,10,11,22,15.90
2019,08,10,11,23,15.90
2019,08,10,11,24,15.90
2019,08,10,11,25,15.90
2019,08,10,11,26,16.00
2019,08,10,11,27,16.00
2019,08,10,11,28,16.00
2019,08,10,11,29,16.00
2019,08,10,11,30,16.10
2019,08,10,11,31,16.10
2019,08,10,11,32,16.20
2019,08,10,11,33,16.20
2019,08,10,11,34,16.20
2019,08,10,11,35,16.20
2019,08,10,11,36,16.20
2019,08,10,11,37,16.20
2019,08,10,11,38,16.20
2019,08,10,11,39,16.20
2019,08,10,11,40,16.20
2019,08,10,11,41,16.20
2019,08,10,11,42,16.20
2019,08,10,11,43,16.20
2019,08,10,11,44,16.20
2019,08,10,11,45,16.30
2019,08,10,11,46,16.30
2019,08,10,11,47,16.30
2019,08,10,11,48,16.40
2019,08,10,11,49,16.40
2019,08,10,11,50,16.40
2019,08,10,11,51,16.40
2019,08,10,11,52,16.40
2019,08,10,11,53,16.30
2019,08,10,11,54,16.20
2019,08,10,11,55,16.10
2019,08,10,11,56,16.10
2019,08,10,11,57,16.10
2019,08,10,11,58,16.10
2019,08,10,11,59,16.10
2019,08,10,12,00,16.10
2019,08,10,12,01,16.10
2019,08,10,12,02,16.10
2019,08,10,12,03,16.10
2019,08,10,12,04,16.10
2019,08,10,12,05,16.10
2019,08,10,12,06,16.00
2019,08,10,12,07,16.00
2019,08,10,12,08,16.00
2019,08,10,12,09,15.90
2019,08,10,12,10,15.80
2019,08,10,12,11,15.70
2019,08,10,12,12,15.60
2019,08,10,12,13,15.60
2019,08,10,12,14,15.40
2019,08,10,12,15,15.40
2019,08,10,12,16,15.30
2019,08,10,12,17,15.30
2019,08,10,12,18,15.30
2019,08,10,12,19,15.20
2019,08,10,12,20,15.20
2019,08,10,12,21,15.20
2019,08,10,12,22,15.30
2019,08,10,12,23,15.30
2019,08,10,12,24,15.30
2019,08,10,12,25,15.20
2019,08,10,12,26,15.20
2019,08,10,12,27,15.20
2019,08,10,12,28,15.20
2019,08,10,12,29,15.10
2019,08,10,12,30,15.10
2019,08,10,12,31,15.10
2019,08,10,12,32,15.10
2019,08,10,12,33,15.00
2019,08,10,12,34,15.00
2019,08,10,12,35,15.00
2019,08,10,12,36,14.90
2019,08,10,12,37,14.90
2019,08,10,12,38,14.90
2019,08,10,12,39,14.90
2019,08,10,12,40,14.90
2019,08,10,12,41,14.90
2019,08,10,12,42,14.90
2019,08,10,12,43,14.90
2019,08,10,12,44,14.90
2019,08,10,12,45,14.90
2019,08,10,12,46,15.00
2019,08,10,12,47,15.00
2019,08,10,12,48,15.00
2019,08,10,12,49,15.10
2019,08,10,12,50,15.10
2019,08,10,12,51,15.20
2019,08,10,12,52,15.20
2019,08,10,12,53,15.20
2019,08,10,12,54,15.20
2019,08,10,12,55,15.30
2019,08,10,12,56,15.30
2019,08,10,12,57,15.30
2019,08,10,12,58,15.30
2019,08,10,12,59,15.40
2019,08,10,13,00,15.40
2019,08,10,13,01,15.50
2019,08,10,13,02,15.50
2019,08,10,13,03,15.60
2019,08,10,13,04,15.60
2019,08,10,13,05,15.60
2019,08,10,13,06,15.60
2019,08,10,13,07,15.60
2019,08,10,13,08,15.70
2019,08,10,13,09,15.70
2019,08,10,13,10,15.70
2019,08,10,13,11,15.70
2019,08,10,13,12,15.70
2019,08,10,13,13,15.80
2019,08,10,13,14,15.80
2019,08,10,13,15,15.90
2019,08,10,13,16,15.90
2019,08,10,13,17,15.90
2019,08,10,13,18,15.90
2019,08,10,13,19,15.90
2019,08,10,13,20,15.90
2019,08,10,13,21,15.80
2019,08,10,13,22,15.70
2019,08,10,13,23,15.50
2019,08,10,13,24,15.40
2019,08,10,13,25,15.40
2019,08,10,13,26,15.30
2019,08,10,13,27,15.30
2019,08,10,13,28,15.30
2019,08,10,13,29,15.20
2019,08,10,13,30,15.20
2019,08,10,13,31,15.20
2019,08,10,13,32,15.20
2019,08,10,13,33,15.10
2019,08,10,13,34,15.10
2019,08,10,13,35,15.10
2019,08,10,13,36,15.10
2019,08,10,13,37,15.10
2019,08,10,13,38,15.00
2019,08,10,13,39,14.90
2019,08,10,13,40,14.80
2019,08,10,13,41,14.80
2019,08,10,13,42,14.70
2019,08,10,13,43,14.70
2019,08,10,13,44,14.60
2019,08,10,13,45,14.50
2019,08,10,13,46,14.50
2019,08,10,13,47,14.50
2019,08,10,13,48,14.40
2019,08,10,13,49,14.40
2019,08,10,13,50,14.40
2019,08,10,13,51,14.40
2019,08,10,13,52,14.40
2019,08,10,13,53,14.50
2019,08,10,13,54,14.50
2019,08,10,13,55,14.50
2019,08,10,13,56,14.60
2019,08,10,13,57,14.60
2019,08,10,13,58,14.60
2019,08,10,13,59,14.70
2019,08,10,14,00,14.70
2019,08,10,14,01,14.80
2019,08,10,14,02,14.80
2019,08,10,14,03,14.90
2019,08,10,14,04,14.90
2019,08,10,14,05,14.90
2019,08,10,14,06,14.90
2019,08,10,14,07,14.90
2019,08,10,14,08,14.90
2019,08,10,14,09,14.90
2019,08,10,14,10,14.90
2019,08,10,14,11,14.90
2019,08,10,14,12,14.90
2019,08,10,14,13,14.90
2019,08,10,14,14,14.90
2019,08,10,14,15,14.90
2019,08,10,14,16,14.90
2019,08,10,14,17,14.80
2019,08,10,14,18,14.80
2019,08,10,14,19,14.80
2019,08,10,14,20,14.90
2019,08,10,14,21,14.90
2019,08,10,14,22,14.90
2019,08,10,14,23,14.80
2019,08,10,14,24,14.80
2019,08,10,14,25,14.80
2019,08,10,14,26,14.80
2019,08,10,14,27,14.80
2019,08,10,14,28,14.80
2019,08,10,14,29,14.90
2019,08,10,14,30,14.90
2019,08,10,14,31,14.90
2019,08,10,14,32,14.90
2019,08,10,14,33,14.90
2019,08,10,14,34,14.90
2019,08,10,14,35,14.80
2019,08,10,14,36,14.80
2019,08,10,14,37,14.80
2019,08,10,14,38,14.80
2019,08,10,14,39,14.80
2019,08,10,14,40,14.80
2019,08,10,14,41,14.90
2019,08,10,14,42,14.90
2019,08,10,14,43,14.90
2019,08,10,14,44,15.00
2019,08,10,14,45,15.00
2019,08,10,14,46,15.10
2019,08,10,14,47,15.10
2019,08,10,14,48,15.10
2019,08,10,14,49,15.10
2019,08,10,14,50,15.10
2019,08,10,14,51,15.20
2019,08,10,14,52,15.20
2019,08,10,14,53,15.20
2019,08,10,14,54,15.20
2019,08,10,14,55,15.20
2019,08,10,14,56,15.20
2019,08,10,14,57,15.20
2019,08,10,14,58,15.10
2019,08,10,14,59,15.10
2019,08,10,15,00,15.10
2019,08,10,15,01,15.00
2019,08,10,15,02,15.00
2019,08,10,15,03,15.10
2019,08,10,15,04,15.10
2019,08,10,15,05,15.10
2019,08,10,15,06,15.10
2019,08,10,15,07,15.10
2019,08,10,15,08,15.10
2019,08,10,15,09,15.10
2019,08,10,15,10,15.10
2019,08,10,15,11,15.10
2019,08,10,15,12,15.10
2019,08,10,15,13,15.10
2019,08,10,15,14,15.10
2019,08,10,15,15,15.10
2019,08,10,15,16,15.10
2019,08,10,15,17,15.10
2019,08,10,15,18,15.10
2019,08,10,15,19,15.10
2019,08,10,15,20,15.20
2019,08,10,15,21,15.20
2019,08,10,15,22,15.20
2019,08,10,15,23,15.20
2019,08,10,15,24,15.20
2019,08,10,15,25,15.20
2019,08,10,15,26,15.20
2019,08,10,15,27,15.20
2019,08,10,15,28,15.20
2019,08,10,15,29,15.20
2019,08,10,15,30,15.30
2019,08,10,15,31,15.30
2019,08,10,15,32,15.30
2019,08,10,15,33,15.30
2019,08,10,15,34,15.40
2019,08,10,15,35,15.40
2019,08,10,15,36,15.40
2019,08,10,15,37,15.40
2019,08,10,15,38,15.40
2019,08,10,15,39,15.40
2019,08,10,15,40,15.50
2019,08,10,15,41,15.50
2019,08,10,15,42,15.50
2019,08,10,15,43,15.60
2019,08,10,15,44,15.60
2019,08,10,15,45,15.70
2019,08,10,15,46,15.70
2019,08,10,15,47,15.70
2019,08,10,15,48,15.70
2019,08,10,15,49,15.70
2019,08,10,15,50,15.80
2019,08,10,15,51,15.80
2019,08,10,15,52,15.80
2019,08,10,15,53,15.80
2019,08,10,15,54,15.90
2019,08,10,15,55,15.90
2019,08,10,15,56,15.90
2019,08,10,15,57,15.90
2019,08,10,15,58,15.90
2019,08,10,15,59,15.90
2019,08,10,16,00,15.90
2019,08,10,16,01,15.90
2019,08,10,16,02,15.90
2019,08,10,16,03,15.90
2019,08,10,16,04,15.90
2019,08,10,16,05,15.90
2019,08,10,16,06,15.90
2019,08,10,16,07,15.90
2019,08,10,16,08,15.90
2019,08,10,16,09,15.90
2019,08,10,16,10,15.90
2019,08,10,16,11,15.90
2019,08,10,16,12,15.90
2019,08,10,16,13,15.90
2019,08,10,16,14,15.90
2019,08,10,16,15,15.90
2019,08,10,16,16,16.00
2019,08,10,16,17,16.00
2019,08,10,16,18,16.00
2019,08,10,16,19,16.00
2019,08,10,16,20,16.10
2019,08,10,16,21,16.10
2019,08,10,16,22,16.10
2019,08,10,16,23,16.10
2019,08,10,16,24,16.10
2019,08,10,16,25,16.20
2019,08,10,16,26,16.20
2019,08,10,16,27,16.20
2019,08,10,16,28,16.20
2019,08,10,16,29,16.20
2019,08,10,16,30,16.30
2019,08,10,16,31,16.30
2019,08,10,16,32,16.30
2019,08,10,16,33,16.40
2019,08,10,16,34,16.40
2019,08,10,16,35,16.40
2019,08,10,16,36,16.50
2019,08,10,16,37,16.50
2019,08,10,16,38,16.60
2019,08,10,16,39,16.60
2019,08,10,16,40,16.60
2019,08,10,16,41,16.60
2019,08,10,16,42,16.70
2019,08,10,16,43,16.70
2019,08,10,16,44,16.80
2019,08,10,16,45,16.80
2019,08,10,16,46,16.80
2019,08,10,16,47,16.90
2019,08,10,16,48,16.90
2019,08,10,16,49,17.00
2019,08,10,16,50,17.00
2019,08,10,16,51,17.10
2019,08,10,16,52,17.10
2019,08,10,16,53,17.10
2019,08,10,16,54,17.20
2019,08,10,16,55,17.20
2019,08,10,16,56,17.20
2019,08,10,16,57,17.30
2019,08,10,16,58,17.30
2019,08,10,16,59,17.30
2019,08,10,17,00,17.40
2019,08,10,17,01,17.40
2019,08,10,17,02,17.40
2019,08,10,17,03,17.40
2019,08,10,17,04,17.50
2019,08,10,17,05,17.50
2019,08,10,17,06,17.60
2019,08,10,17,07,17.60
2019,08,10,17,08,17.60
2019,08,10,17,09,17.70
2019,08,10,17,10,17.70
2019,08,10,17,11,17.70
2019,08,10,17,12,17.80
2019,08,10,17,13,17.80
2019,08,10,17,14,17.80
2019,08,10,17,15,17.80
2019,08,10,17,16,17.90
2019,08,10,17,17,17.90
2019,08,10,17,18,17.90
2019,08,10,17,19,18.00
2019,08,10,17,20,18.00
2019,08,10,17,21,18.00
2019,08,10,17,22,18.10
2019,08,10,17,23,18.10
2019,08,10,17,24,18.20
2019,08,10,17,25,18.20
2019,08,10,17,26,18.20
2019,08,10,17,27,18.30
2019,08,10,17,28,18.30
2019,08,10,17,29,18.30
2019,08,10,17,30,18.30
2019,08,10,17,31,18.30
2019,08,10,17,32,18.30
2019,08,10,17,33,18.40
2019,08,10,17,34,18.40
2019,08,10,17,35,18.40
2019,08,10,17,36,18.40
2019,08,10,17,37,18.30
2019,08,10,17,38,18.30
2019,08,10,17,39,18.30
2019,08,10,17,40,18.30
2019,08,10,17,41,18.30
2019,08,10,17,42,18.30
2019,08,10,17,43,18.30
2019,08,10,17,44,18.30
2019,08,10,17,45,18.30
2019,08,10,17,46,18.30
2019,08,10,17,47,18.30
2019,08,10,17,48,18.30
2019,08,10,17,49,18.30
2019,08,10,17,50,18.40
2019,08,10,17,51,18.40
2019,08,10,17,52,18.40
2019,08,10,17,53,18.50
2019,08,10,17,54,18.60
2019,08,10,17,55,18.60
2019,08,10,17,56,18.60
2019,08,10,17,57,18.60
2019,08,10,17,58,18.70
2019,08,10,17,59,18.70
2019,08,10,18,00,18.80
2019,08,10,18,01,18.80
2019,08,10,18,02,18.90
2019,08,10,18,03,18.90
2019,08,10,18,04,19.00
2019,08,10,18,05,19.10
2019,08,10,18,06,19.10
2019,08,10,18,07,19.20
2019,08,10,18,08,19.30
2019,08,10,18,09,19.40
2019,08,10,18,10,19.50
2019,08,10,18,11,19.50
2019,08,10,18,12,19.60
2019,08,10,18,13,19.60
2019,08,10,18,14,19.60
2019,08,10,18,15,19.70
2019,08,10,18,16,19.70
2019,08,10,18,17,19.70
2019,08,10,18,18,19.70
2019,08,10,18,19,19.80
2019,08,10,18,20,19.80